WESTFORD NEEDLES, 43288

Orbit data source: Space-Track

WESTFORD NEEDLES, 43288 is space debris in LEO originally from a launch on Thu, 09 May 1963 UTC launched from the Air Force Western Test Range (AFWTR). Debris objects in space refer to the collection of defunct objects orbiting the Earth. Examples of debris include non-operational satellites, rocket bodies, and fragments generated from explosions, collisions, or faulty payload assembly.

Loading next visibility...
Identifier
43288, 1963-014FL
Orbit
LEO
Country
Flag of USUS
Related business
Manufacturer
Unknown
Mission
Spacecraft
Bus & Motor
Unknown
Mass
Unknown
Launch date (UTC)
1963-05-09 (63 years ago)
Launch vehicle
Unknown
Launch site
Air Force Western Test Range (AFWTR)
Object type
Payload
Rocket body
Debris
Shape & HBR
Unknown shape, 0.2 m
Radar Cross Section
Medium (>0.1 m² and <1 m²)

Expand to show TLE details & history
Last TLE update: 2 months ago

TLE from 2 months ago
0 WESTFORD NEEDLES
1 43288U 63014FL  26106.56492567  .00000017  00000-0  54262-2 0  9997
2 43288  87.0930 103.0638 0832958 282.4677  68.4302  8.67259630362602
Epoch: 2026-04-16T13:33Z
TLE epoch observation values (Epoch: 2026-04-16T13:33:29.577Z)
Latitude
-0.00005°
Longitude
54.97991°
Altitude
3,387.233 km
Speed
6.467 km/s
True Right ascension
06h 52m 15s
True Declination
0° 00' 00"
Sunlit
Object was in daylight at epoch
Visualization orbit readout
Latitude
Unknown
Longitude
Unknown
Altitude
Unknown
Speed
Unknown
Apparent Right ascension
Unknown
Apparent Declination
Unknown
Sunlit
N/A
Visualization observer readout
Local Sidereal Time
02:13:21
Azimuth
Unknown
Elevation
Unknown
Doppler factor
Unknown
Orbital elements
Apogee altitude
4,459.984 km
Perigee altitude
2,793.274 km
Semi-major axis
10,004.766 km
Eccentricity
0.0833
Inclination
87.093°
RAAN
103.0638°
Arg. of periapsis
282.4677°
True anomaly
77.61974°
Mean anomaly
68.4302°
Eccentric anomaly
72.99402°
Mean motion
2.16887 °/min
Orbital period
165.99 mins
BSTAR
0.0054262
Loading maneuver chart data...
Computing Atmospheric mass density...

Documentation

Showing up to 5 results
|